User: anonymous   Login
Location: Granada
(37.1830°N, 3.6000°W)
Time: 20:09:13
(UTC+02:00)
Language:

Iridium 70 - Orbit

View from above orbital plane
View from above orbital plane
View from above satellite
View from above satellite

Ground track
Ground track

The orbit data is extracted from the following two-line orbital elements,

1 25342U 98032A   15243.39107558  .00000249  00000-0  81751-4 0  9992
2 25342 086.4002 138.3839 0002224 078.8876 321.5012 14.34221630905102
Epoch (UTC): 31 August 2015 09:23:08
Eccentricity: 0.0002224
inclination: 86.4002°
perigee height: 776 km
apogee height: 779 km
right ascension of ascending node: 138.3839°
argument of perigee: 78.8876°
revolutions per day: 14.34221630
mean anomaly at epoch: 321.5012°
orbit number at epoch: 90510

The dashed part of the orbit path shows where the satellite is in the earth's shadow,  

DLR